Find Beidou DW 31

NORAD ID: 43246 Int'l Des: 2018-029 Owner: CNSA Country: CN Constellation: BeiDou operational
MEOCIRCULAR

リアルタイム位置

3D地球を読み込み中...

Beidou DW 31について

説明を読み込み中...

次回通過

Passes for default location (London). Set your location on the main map for personalized predictions.

高度履歴

Loading altitude history...

軌道要素

1 43246U 18029B 26102.91130322 -.00000017 00000-0 00000-0 0 9990
2 43246 54.2509 302.2583 0005059 32.5619 327.4932 1.86229432 54662
Epoch: Apr 12, 2026 • Age: 52 hours

現在のステータス

高度 21514.7 km
速度 3.78 km/s
衛星直下点 8.55°N, 78.22°E
打ち上げ日 Mar 29, 2018
運用期間 8 years
タイプ navigation

打ち上げグループ

Unknown Vehicle • BeiDou Launch 28 • 2 satellites

技術仕様

分類 Payload
質量 1014.00 kg
乾燥質量 850.00 kg
総質量 1014.00 kg
長さ 2.20 m
直径 1.70 m
スパン 10.00 m
形状 Box + 2 Pan
製造者 SECM
バスタイプ BD-3M2
フェーズステータス In Orbit
所有者/国 CNSA/CN

Most Searched